GW4557 Weather Reports


time (UTC)temp
F
wind
direction
speed
knots
gust
knots
rain 1hr
in
rain 24hr
in
rain mn
in
humidity
%
barometer
mb
20260504185704 59 333 1.7 5.2 0.00 0.30 0.28 83 1011.8
20260504185204 59 328 3.5 6.1 0.00 0.30 0.28 85 1011.7
20260504184704 59 303 3.5 7.0 0.00 0.30 0.28 86 1011.7
20260504184204 59 284 4.3 7.0 0.00 0.30 0.28 85 1011.7
20260504183204 59 288 5.2 7.0 0.00 0.30 0.28 83 1011.7
20260504182703 59 290 4.3 7.8 0.00 0.30 0.28 83 1011.7
20260504182204 59 291 5.2 7.8 0.00 0.30 0.28 83 1011.7
20260504181704 59 282 5.2 7.8 0.00 0.30 0.28 83 1011.7
20260504181204 59 285 6.1 7.8 0.00 0.30 0.28 83 1011.7
20260504180704 59 284 6.1 8.7 0.01 0.30 0.28 82 1011.7
20260504175704 59 285 7.8 12.2 0.01 0.30 0.30 82 1011.8
20260504175204 59 284 7.0 12.2 0.01 0.30 0.30 81 1011.7
20260504174704 60 285 8.7 12.2 0.01 0.30 0.30 81 1011.6
20260504174204 60 291 7.8 12.2 0.01 0.30 0.30 80 1011.6
20260504173704 60 296 7.8 12.2 0.01 0.30 0.30 80 1011.7
20260504173204 60 279 8.7 12.2 0.01 0.30 0.30 79 1011.8
20260504172703 60 294 7.0 12.2 0.01 0.30 0.30 78 1011.7
20260504172205 60 301 7.8 12.2 0.01 0.30 0.30 79 1011.7
20260504171704 60 293 6.1 11.3 0.01 0.30 0.30 79 1011.6
20260504171204 60 289 5.2 12.2 0.01 0.30 0.30 78 1011.7
20260504170704 60 294 8.7 12.2 0.00 0.29 0.29 79 1011.7
20260504170204 60 298 7.0 12.2 0.00 0.29 0.29 78 1011.5
20260504160204 61 324 7.8 13.0 0.00 0.29 0.29 74 1011.8
20260504150704 61 313 5.2 14.8 0.00 0.29 0.29 75 1011.9
20260504150204 61 322 9.6 14.8 0.00 0.29 0.29 75 1011.8
20260504141204 61 326 6.1 12.2 0.00 0.30 0.29 82 1012.1
20260504140704 60 337 7.0 12.2 0.00 0.30 0.29 81 1012.1
20260504130704 60 344 6.1 12.2 0.00 0.30 0.29 84 1012.2
20260504130204 60 330 7.8 13.0 0.00 0.30 0.29 84 1012.2
20260504120204 57 0 5.2 11.3 0.02 0.31 0.29 91 1012.2
20260504110204 55 352 7.8 11.3 0.06 0.31 0.28 92 1012.8
20260504100203 54 345 5.2 10.4 0.08 0.25 0.22 93 1012.9
20260504081704 54 340 2.6 5.2 0.04 0.10 0.07 92 1012.5
20260504081203 54 345 1.7 5.2 0.03 0.09 0.06 91 1012.5
20260504080704 55 345 2.6 6.1 0.02 0.09 0.06 91 1012.5
20260504080204 55 331 2.6 6.1 0.02 0.09 0.06 91 1012.4
20260504060204 54 8 5.2 7.8 0.00 0.06 0.03 90 1011.6
20260504050704 53 0 6.1 8.7 0.00 0.06 0.03 92 1011.4
20260504050204 53 0 5.2 8.7 0.00 0.06 0.03 92 1011.4
20260504045704 53 1 5.2 10.4 0.00 0.06 0.03 92 1011.4
20260504045204 53 356 5.2 10.4 0.00 0.06 0.03 92 1011.5
20260504044203 53 353 5.2 8.7 0.00 0.06 0.03 92 1011.5
20260504043703 53 353 6.1 7.8 0.00 0.06 0.03 92 1011.5
20260504043204 53 350 5.2 7.8 0.00 0.06 0.03 92 1011.5
20260504042704 53 343 4.3 8.7 0.00 0.06 0.03 92 1011.5
20260504042205 53 338 4.3 8.7 0.00 0.06 0.03 92 1011.5
20260504041704 53 333 5.2 8.7 0.00 0.06 0.03 92 1011.5
20260504041204 53 342 5.2 8.7 0.00 0.06 0.03 92 1011.5
20260504040704 53 345 4.3 7.8 0.00 0.06 0.03 92 1011.5
20260504035704 53 327 5.2 8.7 0.03 0.06 0.03 92 1011.6
20260504035204 53 325 6.1 8.7 0.03 0.06 0.03 92 1011.7
20260504034704 54 321 6.1 11.3 0.03 0.06 0.03 92 1011.7
20260504034204 54 326 7.0 11.3 0.03 0.06 0.03 92 1011.7
20260504033704 54 330 4.3 7.8 0.03 0.06 0.03 92 1011.6
20260504033204 54 342 5.2 7.0 0.03 0.06 0.03 92 1011.7
20260504032704 54 349 4.3 7.8 0.03 0.06 0.03 93 1011.7
20260504032204 53 353 4.3 7.8 0.03 0.06 0.03 93 1011.6
20260504031204 53 345 5.2 7.8 0.03 0.06 0.03 93 1011.7
20260503223704 54 325 4.3 7.0 0.00 0.03 0.03 92 1012.5
20260503223204 54 326 5.2 7.0 0.00 0.03 0.03 93 1012.5
20260503222704 55 328 4.3 7.0 0.00 0.03 0.03 93 1012.5
20260503222204 55 330 6.1 7.0 0.00 0.04 0.03 93 1012.5
20260503221704 54 324 5.2 7.0 0.00 0.04 0.03 93 1012.6
20260503220704 53 325 6.1 7.0 0.00 0.05 0.03 93 1012.6
20260503220204 52 319 5.2 6.1 0.00 0.05 0.03 93 1012.6
20260503215204 53 314 2.6 4.3 0.00 0.05 0.03 93 1012.6
20260503214704 53 302 0.9 0.9 0.00 0.05 0.03 93 1012.6
20260503214203 53 345 0.9 1.7 0.00 0.05 0.03 93 1012.5
20260503213704 53 290 0.9 1.7 0.00 0.05 0.03 92 1012.5
20260503213204 53 295 0.9 1.7 0.00 0.05 0.03 93 1012.5
20260503212704 53 311 0.0 2.6 0.00 0.05 0.03 92 1012.6
20260503212204 53 294 0.9 2.6 0.00 0.05 0.03 92 1012.6
20260503211704 53 291 1.7 2.6 0.00 0.05 0.03 92 1012.6
20260503211204 53 283 1.7 2.6 0.00 0.05 0.03 92 1012.7
20260503210704 53 303 0.9 1.7 0.00 0.05 0.03 92 1012.7
20260503210204 53 251 0.9 2.6 0.00 0.05 0.03 92 1012.7
20260503205704 53 284 1.7 2.6 0.00 0.05 0.03 91 1012.6
20260503205204 53 305 1.7 2.6 0.00 0.05 0.03 91 1012.5
20260503204704 53 319 0.9 1.7 0.00 0.05 0.03 91 1012.5
20260503204204 54 320 0.9 4.3 0.00 0.05 0.03 91 1012.6
20260503203704 54 320 0.9 5.2 0.00 0.05 0.03 90 1012.5
20260503203204 55 309 2.6 6.1 0.00 0.05 0.03 90 1012.5
20260503202704 56 311 4.3 7.0 0.00 0.05 0.03 90 1012.3
20260503201204 55 307 5.2 7.0 0.00 0.05 0.03 90 1012.1
20260503200704 55 306 4.3 6.1 0.00 0.05 0.03 90 1012.1
20260503200203 56 310 4.3 6.1 0.00 0.05 0.03 89 1012.0
20260503195703 56 297 4.3 6.1 0.00 0.05 0.03 89 1012.0
20260503195204 56 295 4.3 7.0 0.00 0.05 0.03 88 1011.9
20260503194204 58 298 5.2 7.8 0.00 0.05 0.03 86 1011.8
20260503193704 58 315 4.3 7.8 0.00 0.05 0.03 86 1011.7
20260503193204 58 308 6.1 7.8 0.00 0.05 0.03 86 1011.6
20260503192704 58 313 6.1 7.8 0.00 0.05 0.03 85 1011.5
20260503192204 58 310 6.1 7.8 0.00 0.05 0.03 86 1011.5
20260503191704 58 316 4.3 7.0 0.00 0.05 0.03 86 1011.5
20260503191204 58 298 6.1 7.8 0.00 0.05 0.03 85 1011.5
20260503190204 59 279 6.1 7.8 0.00 0.05 0.03 83 1011.3